Вернуться в каталог

COSMOS 2251 DEB

АктивенLEO
NORAD 34022·DEBRIS·🇷🇺 Russia

Запущен Jun 16, 1993 с Plesetsk Cosmodrome

Loading…

Ближайшие Пролёты (ближайшие 24 часа)

TLE

СвежийSource: Space-Track

Эпоха: Sep 14, 2026, 21:27 UTC

1 34022U 93036HH  26257.89433562  .00000324  00000-0  11247-3 0  9991
2 34022  74.0528 121.8018 0021654 123.0765 254.8579 14.39277692921688

Отслеживайте COSMOS 2251 DEB в реальном времени с AllMySat

Download on the App Store